Location: Tuebingen alte Sternwarte
(48.5376°N, 9.0555°E)
Time: 03:08:08
(UTC+01:00)

N. Korean satellite - Visible Passes

Search period start: 25 February 2018 00:00
Search period end: 07 March 2018 00:00
Orbit: 459 x 514 km, 97.2° (Epoch: 24 February)

Date Brightness Start Highest point End Pass type
(mag) Time Alt. Az. Time Alt. Az. Time Alt. Az.
25 Feb 9.8 06:18:07 10° NE 06:20:56 20° E 06:23:46 10° SE visible
25 Feb 7.7 18:30:44 10° S 18:34:05 47° W 18:37:32 10° NNW visible
26 Feb 10.5 05:55:38 10° ENE 05:56:59 12° E 05:58:18 10° ESE visible
27 Feb 10.0 19:18:21 10° SW 19:20:21 15° W 19:22:24 10° NW visible
28 Feb 9.1 18:53:25 10° SSW 18:56:23 26° W 18:59:27 10° NW visible
01 Mar 9.9 06:16:36 10° NE 06:19:24 20° E 06:22:13 10° SE visible
02 Mar 10.6 05:54:11 10° ENE 05:55:25 11° E 05:56:39 10° ESE visible
03 Mar 10.0 19:16:37 10° SW 19:18:45 15° W 19:20:56 10° NW visible
04 Mar 9.1 18:51:45 10° SSW 18:54:48 27° W 18:57:55 10° NW visible
05 Mar 10.0 06:15:02 10° NE 06:17:50 20° E 06:20:37 10° SE visible
06 Mar 10.7 05:52:43 10° ENE 05:53:49 11° E 05:54:56 10° ESE visible
